Location: Gloden
(48.4833°N, 15.3167°E)
Time: 09:03:37
(UTC+00:00)

SL-24 R/B - Pass Details

Date: 15 December 2019
Orbit: 617 x 1346 km, 97.9° (Epoch: 26 January)

Event Time Altitude Azimuth Distance (km) Brightness Sun altitude
Rises 05:16:44 0° 181° (S) 2,947 7.8 -13.5°
Reaches altitude 10° 05:19:02 10° 188° (S) 2,004 6.8 -13.2°
Maximum altitude 05:23:06 44° 261° (W) 857 4.4 -12.6°
Drops below altitude 10° 05:27:14 10° 335° (NNW) 2,019 6.3 -11.9°
Enters shadow 05:27:48 - 337° (NNW) 2,249 6.5 -11.8°
